Location: Fort Worth, Tx
(32.7431°N, 97.3695°W)
Time: 19:01:40
(UTC-04:00)

SR - All Passes

Search period start: 03 October 2024 00:00
Search period end: 13 October 2024 00:00
Orbit: 578 x 855 km, 66.7° (Epoch: 02 October)

Date Brightness Start Highest point End Pass type
(mag) Time Alt. Az. Time Alt. Az. Time Alt. Az.
03 Oct - 10:15:43 10° S 10:19:45 44° ESE 10:23:46 10° NE daylight
03 Oct - 11:59:40 10° W 12:01:44 13° NW 12:03:49 10° NNW daylight
03 Oct - 18:59:51 10° NNE 19:02:30 14° NE 19:05:14 10° E daylight
03 Oct - 20:39:38 10° NNW 20:44:37 66° WSW 20:49:59 10° SSE visible
04 Oct - 09:24:22 10° SE 09:26:59 16° ESE 09:29:34 10° ENE daylight
04 Oct - 11:04:37 10° WSW 11:08:25 32° WNW 11:12:14 10° N daylight
04 Oct - 19:46:42 10° NNW 19:51:35 53° ENE 19:56:50 10° SE daylight
04 Oct - 21:30:01 10° WNW 21:33:03 16° WSW 21:36:11 10° SW visible
05 Oct - 10:11:06 10° SSW 10:15:20 90° NW 10:19:35 10° NNE daylight
05 Oct - 18:54:24 10° N 18:58:24 24° ENE 19:02:36 10° ESE daylight
05 Oct - 20:35:33 10° NW 20:40:13 37° WSW 20:45:11 10° S visible
06 Oct - 09:18:42 10° S 09:22:25 31° ESE 09:26:09 10° NE daylight
06 Oct - 11:01:17 10° W 11:04:13 18° NW 11:07:09 10° N daylight
06 Oct - 18:03:49 10° NE 18:04:57 11° NE 18:06:06 10° ENE daylight
06 Oct - 19:42:12 10° NNW 19:47:15 89° WSW 19:52:42 10° SSE daylight
07 Oct - 08:28:32 10° ESE 08:29:41 11° ESE 08:30:49 10° E daylight
07 Oct - 10:06:54 10° SW 10:10:56 45° WNW 10:15:02 10° NNE daylight
07 Oct - 18:49:26 10° N 18:54:08 39° ENE 18:59:10 10° SE daylight
07 Oct - 20:31:51 10° WNW 20:35:43 22° WSW 20:39:46 10° SSW visible
08 Oct - 09:13:44 10° SSW 09:17:53 62° ESE 09:22:05 10° NNE daylight
08 Oct - 10:59:39 10° NW 11:00:04 10° NW 11:00:28 10° NW daylight
08 Oct - 17:57:24 10° NNE 18:00:50 18° NE 18:04:25 10° E daylight
08 Oct - 19:37:53 10° NW 19:42:48 51° WSW 19:48:05 10° S daylight
09 Oct - 08:21:47 10° SSE 08:25:01 21° ESE 08:28:15 10° ENE daylight
09 Oct - 10:03:08 10° WSW 10:06:36 24° WNW 10:10:07 10° N daylight
09 Oct - 18:44:43 10° NNW 18:49:46 68° ENE 18:55:11 10° SSE daylight
09 Oct - 20:29:10 10° W 20:31:06 12° WSW 20:33:04 10° SW visible
10 Oct - 09:09:12 10° SW 09:13:23 66° WNW 09:17:37 10° NNE daylight
10 Oct - 17:52:08 10° N 17:56:33 30° ENE 18:01:14 10° ESE daylight
10 Oct - 19:33:51 10° NW 19:38:16 29° WSW 19:42:56 10° SSW daylight
11 Oct - 08:16:24 10° S 08:20:22 42° ESE 08:24:23 10° NE daylight
11 Oct - 10:00:04 10° W 10:02:20 14° NW 10:04:37 10° NNW daylight
11 Oct - 17:00:31 10° NNE 17:03:08 14° NE 17:05:48 10° E daylight
11 Oct - 18:40:12 10° NNW 18:45:16 70° WSW 18:50:44 10° SSE daylight
12 Oct - 07:25:06 10° SE 07:27:32 15° ESE 07:29:58 10° ENE visible
12 Oct - 09:05:05 10° SW 09:08:55 34° WNW 09:12:50 10° N daylight
12 Oct - 17:47:13 10° NNW 17:52:09 50° ENE 17:57:26 10° SE daylight
12 Oct - 19:30:20 10° WNW 19:33:37 17° WSW 19:37:01 10° SW daylight
